JQ1YUX-13 Weather Reports


time (UTC)temp
F
wind
direction
speed
knots
gust
knots
rain 1hr
in
rain 24hr
in
rain mn
in
humidity
%
barometer
mb
20260505152732 63 199 1.7 1.7 0.00 0.00 0.00 75 1022.1
20260505151231 63 204 0.0 0.9 0.00 0.00 0.00 75 1022.3
20260505124231 63 192 1.7 4.3 0.00 0.00 0.00 66 1022.0
20260505122733 63 180 2.6 7.0 0.00 0.00 0.00 65 1022.1
20260505121231 63 188 4.3 6.1 0.00 0.00 0.00 65 1022.0
20260505115732 63 192 5.2 7.8 0.00 0.00 0.00 64 1022.1
20260505114232 63 182 5.2 6.1 0.00 0.00 0.00 63 1022.1
20260505112731 63 181 4.3 7.0 0.00 0.00 0.00 65 1022.0
20260505111231 63 201 1.7 7.0 0.00 0.00 0.00 64 1021.9
20260505101231 64 166 5.2 7.0 0.00 0.00 0.00 63 1021.4
20260505095732 64 186 4.3 7.8 0.00 0.00 0.00 60 1021.1
20260505094232 64 187 6.1 7.8 0.00 0.00 0.00 58 1021.0
20260505092731 65 172 6.1 13.9 0.00 0.00 0.00 57 1020.9
20260505091232 66 175 4.3 8.7 0.00 0.00 0.00 56 1020.6
20260505085732 66 174 6.1 7.8 0.00 0.00 0.00 57 1020.5
20260505084231 67 206 5.2 7.8 0.00 0.00 0.00 57 1020.2
20260505082732 68 173 2.6 8.7 0.00 0.00 0.00 56 1020.2
20260505081232 69 182 6.1 10.4 0.00 0.00 0.00 56 1020.1
20260505075731 69 211 6.1 7.0 0.00 0.00 0.00 54 1020.0
20260505074232 71 204 5.2 7.0 0.00 0.00 0.00 49 1019.7
20260505072732 71 222 4.3 7.8 0.00 0.00 0.00 48 1019.5
20260505071231 72 205 5.2 10.4 0.00 0.00 0.00 45 1019.3
20260505065732 72 196 6.1 8.7 0.00 0.00 0.00 48 1019.2
20260505064232 72 168 6.1 12.2 0.00 0.00 0.00 45 1019.2
20260505062733 73 192 5.2 10.4 0.00 0.00 0.00 41 1019.0
20260505061232 73 198 4.3 8.7 0.00 0.00 0.00 36 1018.9
20260505055731 74 199 4.3 5.2 0.00 0.00 0.00 37 1018.8
20260505054232 74 160 4.3 10.4 0.00 0.00 0.00 34 1018.8
20260505052732 77 180 2.6 6.1 0.00 0.00 0.00 31 1018.7
20260505051232 77 304 0.9 1.7 0.00 0.00 0.00 30 1018.8
20260505041233 76 153 0.9 1.7 0.00 0.00 0.00 25 1019.0
20260505035731 76 7 0.9 4.3 0.00 0.00 0.00 25 1018.9
20260505034232 74 327 1.7 2.6 0.00 0.00 0.00 26 1018.9
20260505032733 75 16 1.7 1.7 0.00 0.00 0.00 27 1018.9
20260505031231 72 6 0.9 2.6 0.00 0.00 0.00 27 1019.0
20260505025732 72 32 6.1 11.3 0.00 0.00 0.00 28 1019.0
20260505024232 72 29 6.1 10.4 0.00 0.00 0.00 30 1019.0
20260505022733 71 330 1.7 0.9 0.00 0.00 0.00 34 1019.1
20260505021231 71 30 5.2 10.4 0.00 0.00 0.00 33 1019.1
20260505015732 71 18 5.2 7.0 0.00 0.00 0.00 35 1019.3
20260505014232 69 13 6.1 10.4 0.00 0.00 0.00 35 1019.2
20260505012732 69 29 6.1 6.1 0.00 0.00 0.00 35 1019.1
20260505011233 68 34 1.7 4.3 0.00 0.00 0.00 36 1019.1
20260505005731 68 24 7.0 10.4 0.00 0.00 0.00 37 1019.1
20260505004232 67 344 5.2 7.0 0.00 0.00 0.00 37 1019.0
20260505002733 67 356 2.6 7.0 0.00 0.00 0.00 39 1019.0
20260505001231 67 21 6.1 8.7 0.00 0.00 0.00 39 1019.0
20260504235731 66 2 2.6 6.1 0.00 0.00 0.00 40 1019.0
20260504234232 65 320 2.6 4.3 0.00 0.00 0.00 41 1019.1
20260504232731 64 334 4.3 7.0 0.00 0.00 0.00 43 1019.0
20260504231232 64 2 2.6 8.7 0.00 0.00 0.00 44 1019.1
20260504225732 64 349 4.3 5.2 0.00 0.00 0.00 45 1019.1
20260504224233 63 359 5.2 7.8 0.00 0.00 0.00 46 1018.8
20260504222732 62 336 6.1 11.3 0.00 0.00 0.00 47 1018.6
20260504221232 61 332 1.7 10.4 0.00 0.00 0.00 50 1018.5
20260504215732 59 353 4.3 6.1 0.00 0.00 0.00 52 1018.3
20260504214231 59 14 1.7 2.6 0.00 0.00 0.00 53 1018.1
20260504212732 58 340 0.9 2.6 0.00 0.00 0.00 54 1017.9
20260504211232 58 356 4.3 7.0 0.00 0.00 0.00 54 1017.7
20260504205733 58 323 4.3 5.2 0.00 0.00 0.00 54 1017.2
20260504204231 58 5 1.7 4.3 0.00 0.01 0.00 54 1016.9
20260504202732 58 335 0.9 2.6 0.00 0.01 0.00 55 1016.6
20260504201233 57 333 4.3 7.8 0.00 0.06 0.00 55 1016.2
20260504195731 57 2 2.6 5.2 0.00 0.11 0.00 55 1015.7
20260504194232 57 336 2.6 6.1 0.00 0.13 0.00 56 1015.3
20260504192733 57 333 5.2 7.8 0.00 0.13 0.00 57 1014.9
20260504191231 57 3 7.0 13.0 0.00 0.13 0.00 56 1014.6
20260504185732 57 1 2.6 4.3 0.00 0.13 0.00 57 1014.2
20260504184232 57 336 4.3 8.7 0.00 0.13 0.00 57 1014.1
20260504182731 58 354 5.2 7.8 0.00 0.14 0.00 56 1013.8
20260504181232 58 3 4.3 6.1 0.00 0.15 0.00 57 1013.4
20260504175733 58 341 6.1 10.4 0.00 0.17 0.00 57 1012.9
20260504174231 58 345 5.2 8.7 0.00 0.17 0.00 58 1012.5
20260504172732 58 6 5.2 7.0 0.00 0.17 0.00 57 1012.2
20260504171232 58 4 6.1 10.4 0.00 0.17 0.00 57 1011.7